Time,TemperatureF,DewpointF,PressureIn,WindDirection,WindDirectionDegrees,WindSpeedMPH,WindSpeedGustMPH,Humidity,HourlyPrecipIn,Conditions,Clouds,dailyrainin,SoftwareType,DateUTC
2013-04-23 00:00:00,31.6,30.3,30.15,NW,315,3.0,13.0,95,0.00,,SKC,0.00,VWS V14.01,2013-04-23 05:00:00,
2013-04-23 00:13:00,31.5,30.0,30.15,NNW,327,1.0,-999.0,95,-99.99,,,0.00,weatherlink.com 1.10,2013-04-23 05:13:00,
2013-04-23 00:28:00,31.4,30.0,30.14,NNW,329,8.0,-999.0,95,-99.99,,,0.00,weatherlink.com 1.10,2013-04-23 05:28:00,
2013-04-23 00:30:00,31.4,30.1,30.14,NW,315,2.0,12.0,95,0.00,,SKC,0.00,VWS V14.01,2013-04-23 05:30:00,
2013-04-23 00:43:00,31.4,30.0,30.14,NW,320,0.0,-999.0,95,-99.99,,,0.00,weatherlink.com 1.10,2013-04-23 05:43:00,
2013-04-23 00:58:00,31.4,30.0,30.14,NW,324,0.0,-999.0,95,-99.99,,,0.00,weatherlink.com 1.10,2013-04-23 05:58:00,
2013-04-23 01:00:00,31.4,30.1,30.14,NW,315,2.0,9.0,95,0.00,,SKC,0.00,VWS V14.01,2013-04-23 06:00:00,
2013-04-23 01:13:00,31.4,30.0,30.15,NW,312,5.0,-999.0,95,-99.99,,,0.00,weatherlink.com 1.10,2013-04-23 06:13:00,
2013-04-23 01:28:00,31.4,30.0,30.13,WNW,290,0.0,-999.0,95,-99.99,,,0.00,weatherlink.com 1.10,2013-04-23 06:28:00,
2013-04-23 01:30:00,31.4,30.1,30.13,NW,315,2.0,8.0,95,0.00,,SKC,0.00,VWS V14.01,2013-04-23 06:30:00,
2013-04-23 01:43:00,31.4,30.0,30.14,NNW,331,0.0,-999.0,95,-99.99,,,0.00,weatherlink.com 1.10,2013-04-23 06:43:00,
2013-04-23 01:58:00,31.2,30.0,30.14,NW,319,5.0,-999.0,95,-99.99,,,0.00,weatherlink.com 1.10,2013-04-23 06:58:00,
2013-04-23 02:00:00,31.2,29.9,30.14,NW,315,2.0,10.0,95,0.00,,SKC,0.00,VWS V14.01,2013-04-23 07:00:00,
2013-04-23 02:13:00,31.1,30.0,30.15,NNW,327,0.0,-999.0,95,-99.99,,,0.00,weatherlink.com 1.10,2013-04-23 07:13:00,
2013-04-23 02:28:00,31.1,30.0,30.15,NW,305,4.0,-999.0,94,-99.99,,,0.00,weatherlink.com 1.10,2013-04-23 07:28:00,
2013-04-23 02:30:00,31.1,29.6,30.15,NW,315,2.0,12.0,94,0.00,,SKC,0.00,VWS V14.01,2013-04-23 07:30:00,
2013-04-23 02:43:00,31.0,30.0,30.15,NW,324,2.0,-999.0,94,-99.99,,,0.00,weatherlink.com 1.10,2013-04-23 07:43:00,
2013-04-23 02:58:00,31.0,30.0,30.15,WNW,296,0.0,-999.0,94,-99.99,,,0.00,weatherlink.com 1.10,2013-04-23 07:58:00,
2013-04-23 03:00:00,31.0,29.5,30.15,NW,315,1.0,8.0,94,0.00,,SKC,0.00,VWS V14.01,2013-04-23 08:00:00,
2013-04-23 03:13:00,31.0,30.0,30.14,NNW,333,0.0,-999.0,94,-99.99,,,0.00,weatherlink.com 1.10,2013-04-23 08:13:00,
2013-04-23 03:28:00,31.0,30.0,30.13,NW,310,0.0,-999.0,94,-99.99,,,0.00,weatherlink.com 1.10,2013-04-23 08:28:00,
2013-04-23 03:30:00,31.0,29.5,30.13,NW,315,1.0,8.0,94,0.00,,SKC,0.00,VWS V14.01,2013-04-23 08:30:00,
2013-04-23 03:43:00,31.0,30.0,30.13,WNW,292,4.0,-999.0,94,-99.99,,,0.00,weatherlink.com 1.10,2013-04-23 08:43:00,
2013-04-23 03:58:00,30.9,29.0,30.13,NNW,330,5.0,-999.0,94,-99.99,,,0.00,weatherlink.com 1.10,2013-04-23 08:58:00,
2013-04-23 04:00:00,30.9,29.4,30.13,NW,315,1.0,6.0,94,0.00,,SKC,0.00,VWS V14.01,2013-04-23 09:00:00,
2013-04-23 04:13:00,30.8,29.0,30.11,NNW,333,0.0,-999.0,94,-99.99,,,0.00,weatherlink.com 1.10,2013-04-23 09:13:00,
2013-04-23 04:28:00,30.5,29.0,30.11,West,264,1.0,-999.0,94,-99.99,,,0.00,weatherlink.com 1.10,2013-04-23 09:28:00,
2013-04-23 04:30:00,30.5,29.0,30.11,NW,315,1.0,6.0,94,0.00,,SKC,0.00,VWS V14.01,2013-04-23 09:30:00,
2013-04-23 04:43:00,30.3,29.0,30.11,NW,320,0.0,-999.0,94,-99.99,,,0.00,weatherlink.com 1.10,2013-04-23 09:43:00,
2013-04-23 04:58:00,30.1,29.0,30.11,NNW,334,0.0,-999.0,94,-99.99,,,0.00,weatherlink.com 1.10,2013-04-23 09:58:00,
2013-04-23 05:00:00,30.0,28.5,30.11,NW,315,0.0,5.0,94,0.00,,SKC,0.00,VWS V14.01,2013-04-23 10:00:00,
2013-04-23 05:13:00,29.5,28.0,30.11,WNW,303,0.0,-999.0,94,-99.99,,,0.00,weatherlink.com 1.10,2013-04-23 10:13:00,
2013-04-23 05:28:00,29.0,28.0,30.11,NW,315,0.0,-999.0,94,-99.99,,,0.00,weatherlink.com 1.10,2013-04-23 10:28:00,
2013-04-23 05:30:00,29.0,27.5,30.11,NW,315,0.0,4.0,94,0.00,,SKC,0.00,VWS V14.01,2013-04-23 10:30:00,
2013-04-23 05:43:00,28.7,27.0,30.11,NW,323,5.0,-999.0,93,-99.99,,,0.00,weatherlink.com 1.10,2013-04-23 10:43:00,
2013-04-23 05:58:00,28.3,26.0,30.12,NW,315,5.0,-999.0,92,-99.99,,,0.00,weatherlink.com 1.10,2013-04-23 10:58:00,
2013-04-23 06:00:00,28.3,26.3,30.12,WNW,292,1.0,6.0,92,0.00,,SKC,0.00,VWS V14.01,2013-04-23 11:00:00,
2013-04-23 06:13:00,27.8,26.0,30.13,WNW,296,0.0,-999.0,91,-99.99,,,0.00,weatherlink.com 1.10,2013-04-23 11:13:00,
2013-04-23 06:28:00,27.7,26.0,30.14,WNW,293,0.0,-999.0,91,-99.99,,,0.00,weatherlink.com 1.10,2013-04-23 11:28:00,
2013-04-23 06:30:00,27.7,25.4,30.14,WNW,292,1.0,5.0,91,0.00,,SKC,0.00,VWS V14.01,2013-04-23 11:30:00,
2013-04-23 06:43:00,27.8,25.0,30.15,WNW,290,0.0,-999.0,90,-99.99,,,0.00,weatherlink.com 1.10,2013-04-23 11:43:00,
2013-04-23 06:58:00,27.4,25.0,30.15,WNW,303,0.0,-999.0,89,-99.99,,,0.00,weatherlink.com 1.10,2013-04-23 11:58:00,
2013-04-23 07:00:00,27.4,24.6,30.15,West,270,0.0,6.0,89,0.00,,SKC,0.00,VWS V14.01,2013-04-23 12:00:00,
2013-04-23 07:13:00,26.8,24.0,30.15,NW,307,0.0,-999.0,89,-99.99,,,0.00,weatherlink.com 1.10,2013-04-23 12:13:00,
2013-04-23 07:28:00,26.2,23.0,30.14,NW,307,0.0,-999.0,89,-99.99,,,0.00,weatherlink.com 1.10,2013-04-23 12:28:00,
2013-04-23 07:30:00,26.2,23.4,30.14,WNW,292,0.0,2.0,89,0.00,,SKC,0.00,VWS V14.01,2013-04-23 12:30:00,
2013-04-23 07:43:00,27.2,25.0,30.14,NW,307,0.0,-999.0,90,-99.99,,,0.00,weatherlink.com 1.10,2013-04-23 12:43:00,
2013-04-23 07:59:00,28.9,26.0,30.14,NW,309,1.0,-999.0,87,-99.99,,,0.00,weatherlink.com 1.10,2013-04-23 12:59:00,
2013-04-23 08:00:00,28.9,25.5,30.14,NW,315,0.0,5.0,87,0.00,,SKC,0.00,VWS V14.01,2013-04-23 13:00:00,
2013-04-23 08:14:00,29.9,25.0,30.14,NW,320,6.0,-999.0,83,-99.99,,,0.00,weatherlink.com 1.10,2013-04-23 13:14:00,
2013-04-23 08:29:00,31.5,27.0,30.14,NW,308,0.0,-999.0,83,-99.99,,,0.02,weatherlink.com 1.10,2013-04-23 13:29:00,
2013-04-23 08:30:00,31.5,26.9,30.15,NW,315,1.0,7.0,83,0.02,,SKC,0.02,VWS V14.01,2013-04-23 13:30:00,
2013-04-23 08:44:00,32.4,27.0,30.15,WNW,298,1.0,-999.0,79,-99.99,,,0.04,weatherlink.com 1.10,2013-04-23 13:44:00,
2013-04-23 08:59:00,32.5,27.0,30.14,NNW,339,2.0,-999.0,80,-99.99,,,0.06,weatherlink.com 1.10,2013-04-23 13:59:00,
2013-04-23 09:00:00,32.5,27.0,30.14,NW,315,2.0,6.0,80,0.06,,SKC,0.06,VWS V14.01,2013-04-23 14:00:00,
2013-04-23 09:14:00,33.1,27.0,30.14,NW,310,0.0,-999.0,77,-99.99,,,0.08,weatherlink.com 1.10,2013-04-23 14:14:00,
2013-04-23 09:29:00,33.7,27.0,30.14,NW,315,4.0,-999.0,76,-99.99,,,0.09,weatherlink.com 1.10,2013-04-23 14:29:00,
2013-04-23 09:30:00,33.7,27.0,30.14,NW,315,3.0,9.0,76,0.09,,SKC,0.09,VWS V14.01,2013-04-23 14:30:00,
2013-04-23 09:44:00,34.2,27.0,30.14,WNW,282,1.0,-999.0,75,-99.99,,,0.10,weatherlink.com 1.10,2013-04-23 14:44:00,
2013-04-23 09:59:00,34.5,27.0,30.14,WNW,297,4.0,-999.0,75,-99.99,,,0.11,weatherlink.com 1.10,2013-04-23 14:59:00,
2013-04-23 10:00:00,34.5,27.4,30.14,NW,315,3.0,11.0,75,0.09,,SKC,0.11,VWS V14.01,2013-04-23 15:00:00,
2013-04-23 10:14:00,35.0,27.0,30.13,NW,308,4.0,-999.0,73,-99.99,,,0.12,weatherlink.com 1.10,2013-04-23 15:14:00,
2013-04-23 10:29:00,35.2,27.0,30.14,WNW,299,5.0,-999.0,72,-99.99,,,0.14,weatherlink.com 1.10,2013-04-23 15:29:00,
2013-04-23 10:30:00,35.2,27.1,30.14,NW,315,3.0,7.0,72,0.07,,SKC,0.13,VWS V14.01,2013-04-23 15:30:00,
2013-04-23 10:44:00,35.7,27.0,30.13,NW,311,0.0,-999.0,70,-99.99,,,0.15,weatherlink.com 1.10,2013-04-23 15:44:00,
2013-04-23 10:59:00,36.6,28.0,30.13,WNW,291,2.0,-999.0,70,-99.99,,,0.16,weatherlink.com 1.10,2013-04-23 15:59:00,
2013-04-23 11:00:00,36.5,27.3,30.13,NW,315,3.0,11.0,69,0.07,,SKC,0.16,VWS V14.01,2013-04-23 16:00:00,
2013-04-23 11:14:00,37.3,27.0,30.12,NNW,327,2.0,-999.0,67,-99.99,,,0.17,weatherlink.com 1.10,2013-04-23 16:14:00,
2013-04-23 11:29:00,37.2,26.0,30.12,West,272,7.0,-999.0,65,-99.99,,,0.18,weatherlink.com 1.10,2013-04-23 16:29:00,
2013-04-23 11:30:00,37.2,26.5,30.11,NW,315,3.0,10.0,65,0.07,,SKC,0.18,VWS V14.01,2013-04-23 16:30:00,
2013-04-23 11:44:00,37.2,27.0,30.11,NW,308,4.0,-999.0,68,-99.99,,,0.18,weatherlink.com 1.10,2013-04-23 16:44:00,
2013-04-23 11:59:00,37.8,28.0,30.11,WNW,303,4.0,-999.0,67,-99.99,,,0.18,weatherlink.com 1.10,2013-04-23 16:59:00,
2013-04-23 12:00:00,37.7,27.8,30.11,NW,315,3.0,11.0,67,0.05,,SKC,0.18,VWS V14.01,2013-04-23 17:00:00,
2013-04-23 12:14:00,38.0,26.0,30.11,West,265,1.0,-999.0,63,-99.99,,,0.18,weatherlink.com 1.10,2013-04-23 17:14:00,
2013-04-23 12:29:00,38.0,26.0,30.11,West,262,1.0,-999.0,63,-99.99,,,0.18,weatherlink.com 1.10,2013-04-23 17:29:00,
2013-04-23 12:30:00,38.0,26.5,30.11,NW,315,4.0,15.0,63,0.02,,SKC,0.18,VWS V14.01,2013-04-23 17:30:00,
2013-04-23 12:44:00,39.0,26.0,30.10,NNW,345,2.0,-999.0,59,-99.99,,,0.18,weatherlink.com 1.10,2013-04-23 17:44:00,
2013-04-23 12:59:00,39.2,27.0,30.10,WNW,296,6.0,-999.0,61,-99.99,,,0.18,weatherlink.com 1.10,2013-04-23 17:59:00,
2013-04-23 13:00:00,39.2,26.9,30.10,WNW,292,3.0,9.0,61,0.00,,SKC,0.18,VWS V14.01,2013-04-23 18:00:00,
2013-04-23 13:14:00,39.3,25.0,30.09,WSW,256,3.0,-999.0,57,-99.99,,,0.18,weatherlink.com 1.10,2013-04-23 18:14:00,
2013-04-23 13:29:00,39.6,26.0,30.09,WNW,297,6.0,-999.0,59,-99.99,,,0.18,weatherlink.com 1.10,2013-04-23 18:29:00,
2013-04-23 13:30:00,39.5,25.1,30.09,NW,315,5.0,16.0,56,0.00,,SKC,0.18,VWS V14.01,2013-04-23 18:30:00,
2013-04-23 13:44:00,39.8,26.0,30.08,NW,317,4.0,-999.0,57,-99.99,,,0.18,weatherlink.com 1.10,2013-04-23 18:44:00,
2013-04-23 13:59:00,40.4,25.0,30.08,NNW,348,2.0,-999.0,54,-99.99,,,0.18,weatherlink.com 1.10,2013-04-23 18:59:00,
2013-04-23 14:00:00,40.3,24.5,30.08,NW,315,3.0,11.0,53,0.00,,SKC,0.18,VWS V14.01,2013-04-23 19:00:00,
2013-04-23 14:14:00,40.8,25.0,30.08,NW,307,2.0,-999.0,53,-99.99,,,0.18,weatherlink.com 1.10,2013-04-23 19:14:00,
2013-04-23 14:29:00,41.0,27.0,30.08,West,263,4.0,-999.0,57,-99.99,,,0.18,weatherlink.com 1.10,2013-04-23 19:29:00,
2013-04-23 14:30:00,40.9,26.0,30.08,NW,315,3.0,9.0,55,0.00,,SKC,0.18,VWS V14.01,2013-04-23 19:30:00,
2013-04-23 14:44:00,41.4,25.0,30.07,NW,326,8.0,-999.0,52,-99.99,,,0.18,weatherlink.com 1.10,2013-04-23 19:44:00,
2013-04-23 14:59:00,40.9,25.0,30.07,NNW,329,4.0,-999.0,54,-99.99,,,0.18,weatherlink.com 1.10,2013-04-23 19:59:00,
2013-04-23 15:00:00,40.9,25.1,30.07,NW,315,4.0,11.0,53,0.00,,SKC,0.18,VWS V14.01,2013-04-23 20:00:00,
2013-04-23 15:14:00,41.7,24.0,30.07,NW,324,4.0,-999.0,49,-99.99,,,0.18,weatherlink.com 1.10,2013-04-23 20:14:00,
2013-04-23 15:29:00,42.1,24.0,30.07,NW,309,5.0,-999.0,48,-99.99,,,0.18,weatherlink.com 1.10,2013-04-23 20:29:00,
2013-04-23 15:30:00,42.0,24.2,30.07,WNW,292,3.0,11.0,49,0.00,,SKC,0.18,VWS V14.01,2013-04-23 20:30:00,
2013-04-23 15:44:00,42.2,24.0,30.07,NW,305,7.0,-999.0,49,-99.99,,,0.18,weatherlink.com 1.10,2013-04-23 20:44:00,
2013-04-23 15:59:00,41.9,21.0,30.07,West,279,8.0,-999.0,44,-99.99,,,0.18,weatherlink.com 1.10,2013-04-23 20:59:00,
2013-04-23 16:00:00,41.9,21.6,30.07,WNW,292,4.0,13.0,44,0.00,,SKC,0.18,VWS V14.01,2013-04-23 21:00:00,
2013-04-23 16:15:00,42.1,22.0,30.06,WNW,292,5.0,-999.0,45,-99.99,,,0.18,weatherlink.com 1.10,2013-04-23 21:15:00,
2013-04-23 16:30:00,42.1,21.0,30.06,NW,315,9.0,-999.0,43,-99.99,,,0.18,weatherlink.com 1.10,2013-04-23 21:30:00,
2013-04-23 16:45:00,42.2,20.0,30.06,NW,313,2.0,-999.0,42,-99.99,,,0.18,weatherlink.com 1.10,2013-04-23 21:45:00,
2013-04-23 17:00:00,42.5,21.0,30.06,WNW,298,8.0,-999.0,42,-99.99,,,0.18,weatherlink.com 1.10,2013-04-23 22:00:00,
2013-04-23 17:15:00,42.2,21.0,30.06,WNW,296,1.0,-999.0,43,-99.99,,,0.18,weatherlink.com 1.10,2013-04-23 22:15:00,
2013-04-23 17:30:00,42.0,19.0,30.05,WNW,302,4.0,-999.0,40,-99.99,,,0.18,weatherlink.com 1.10,2013-04-23 22:30:00,
2013-04-23 17:45:00,42.1,20.0,30.05,WNW,292,4.0,-999.0,41,-99.99,,,0.18,weatherlink.com 1.10,2013-04-23 22:45:00,
2013-04-23 18:00:00,42.3,21.0,30.05,NW,309,0.0,-999.0,42,-99.99,,,0.18,weatherlink.com 1.10,2013-04-23 23:00:00,
2013-04-23 18:15:00,42.1,20.0,30.05,West,267,2.0,-999.0,41,-99.99,,,0.18,weatherlink.com 1.10,2013-04-23 23:15:00,
2013-04-23 18:30:00,41.6,19.0,30.05,West,267,2.0,-999.0,40,-99.99,,,0.18,weatherlink.com 1.10,2013-04-23 23:30:00,
2013-04-23 18:45:00,41.0,19.0,30.05,West,277,4.0,-999.0,42,-99.99,,,0.18,weatherlink.com 1.10,2013-04-23 23:45:00,
2013-04-23 19:00:00,40.7,18.0,30.05,WNW,303,1.0,-999.0,40,-99.99,,,0.18,weatherlink.com 1.10,2013-04-24 00:00:00,
2013-04-23 19:15:00,39.7,20.0,30.04,West,277,0.0,-999.0,46,-99.99,,,0.18,weatherlink.com 1.10,2013-04-24 00:15:00,
2013-04-23 19:30:00,38.9,22.0,30.04,NW,314,5.0,-999.0,51,-99.99,,,0.18,weatherlink.com 1.10,2013-04-24 00:30:00,
2013-04-23 19:45:00,37.8,22.0,30.04,West,275,6.0,-999.0,54,-99.99,,,0.18,weatherlink.com 1.10,2013-04-24 00:45:00,
2013-04-23 20:00:00,37.0,23.0,30.04,West,275,1.0,-999.0,57,-99.99,,,0.18,weatherlink.com 1.10,2013-04-24 01:00:00,
2013-04-23 20:15:00,36.2,23.0,30.05,West,267,1.0,-999.0,58,-99.99,,,0.18,weatherlink.com 1.10,2013-04-24 01:15:00,
2013-04-23 20:30:00,35.6,22.0,30.05,West,272,2.0,-999.0,59,-99.99,,,0.18,weatherlink.com 1.10,2013-04-24 01:30:00,
2013-04-23 20:45:00,35.1,22.0,30.05,SW,236,0.0,-999.0,60,-99.99,,,0.18,weatherlink.com 1.10,2013-04-24 01:45:00,
2013-04-23 21:00:00,34.6,23.0,30.05,WSW,248,0.0,-999.0,62,-99.99,,,0.18,weatherlink.com 1.10,2013-04-24 02:00:00,
2013-04-23 21:15:00,34.1,22.0,30.06,West,269,0.0,-999.0,62,-99.99,,,0.18,weatherlink.com 1.10,2013-04-24 02:15:00,
2013-04-23 21:30:00,33.7,23.0,30.06,WNW,289,0.0,-999.0,64,-99.99,,,0.18,weatherlink.com 1.10,2013-04-24 02:30:00,
2013-04-23 21:45:00,33.4,22.0,30.06,West,269,0.0,-999.0,64,-99.99,,,0.18,weatherlink.com 1.10,2013-04-24 02:45:00,
2013-04-23 22:00:00,33.1,22.0,30.06,West,261,0.0,-999.0,64,-99.99,,,0.18,weatherlink.com 1.10,2013-04-24 03:00:00,
2013-04-23 22:15:00,32.9,22.0,30.07,WSW,253,0.0,-999.0,64,-99.99,,,0.18,weatherlink.com 1.10,2013-04-24 03:15:00,
2013-04-23 22:30:00,32.5,22.0,30.06,West,261,1.0,-999.0,65,-99.99,,,0.18,weatherlink.com 1.10,2013-04-24 03:30:00,
2013-04-23 22:45:00,31.9,22.0,30.06,WSW,249,0.0,-999.0,66,-99.99,,,0.18,weatherlink.com 1.10,2013-04-24 03:45:00,
2013-04-23 23:00:00,31.4,22.0,30.07,West,278,0.0,-999.0,68,-99.99,,,0.18,weatherlink.com 1.10,2013-04-24 04:00:00,
2013-04-23 23:15:00,31.0,22.0,30.06,SW,226,0.0,-999.0,68,-99.99,,,0.18,weatherlink.com 1.10,2013-04-24 04:15:00,
2013-04-23 23:30:00,30.8,22.0,30.05,WSW,246,0.0,-999.0,71,-99.99,,,0.18,weatherlink.com 1.10,2013-04-24 04:30:00,
2013-04-23 23:45:00,30.6,23.0,30.06,SW,225,0.0,-999.0,72,-99.99,,,0.18,weatherlink.com 1.10,2013-04-24 04:45:00,